Location: Unspecified
(0.0000°N, 0.0000°E)
Time: 02:34:45
(UTC+00:00)

Hubble Space Telescope - Pass Details

Date: 22 December 2025
Orbit: 479 x 481 km, 28.5° (Epoch: 19 January)

Event Time Altitude Azimuth Distance (km) Brightness Sun altitude
Rises 19:30:13 0° 298° (WNW) 2,522 4.7 -20.9°
Reaches altitude 10° 19:32:25 10° 297° (WNW) 1,645 3.7 -21.4°
Maximum altitude 19:36:12 78° 210° (SSW) 492 0.5 -22.2°
Enters shadow 19:36:15 77° 199° (SSW) 493 0.5 -22.2°
